Location: *
(46.3500°N, 10.9000°E)
Time: 02:17:43
(UTC+00:00)

STARLINK-1138 - Pass Details

Date: 09 April 2020
Orbit: 548 x 551 km, 53.0° (Epoch: 03 June)

Event Time Altitude Azimuth Distance (km) Brightness Sun altitude
Rises 19:56:20 0° 300° (WNW) 2,728 8.8 -19.6°
Reaches altitude 10° 19:58:35 10° 301° (WNW) 1,832 7.5 -19.9°
Maximum altitude 20:02:45 87° 31° (NNE) 557 3.5 -20.5°
Enters shadow 20:03:23 64° 114° (ESE) 615 3.5 -20.6°
